Погода в Шадринске

Россия / Курганская область     56°05′13″N   63°37′47″E
темп.,
°C
ветер,
м/с
пор.,
м/с
влажн.,
%
обл.,
%
осадки,
мм/ч
давл.,
гПа
погр.,
м
6 мая, чт
чт623:00+15зсз111362100 0.0 998979
02:00+10зсз7137083 0.0 10011228
05:00+8з813655 0.0 1004861
08:00+9з912555 0.0 10061181
11:00+12з10124382 0.0 10082084
14:00+12з8124193 0.0 10112061
17:00+14зсз8103271 0.0 10122301
20:00+11зсз611425 0.0 1014645
7 мая, пт
пт723:00+7зсз35540 0.0 101677
02:00+6з410580 0.0 1018181
05:00+4з48680 0.0 1020133
08:00+10з465220 0.0 1021401
11:00+15з45365 0.0 10211251
14:00+18з45337 0.0 10211624
17:00+19з45305 0.0 10201742
20:00+16юз22420 0.0 102011
8 мая, сб
сб823:00+12ююз334828 0.0 102134
02:00+11ююз335082 0.0 102119
05:00+10ююз1253100 0.0 102110
08:00+14ю1244100 0.0 1021135
11:00+19ююв2231100 0.0 10201257
14:00+21юв2126100 0.0 10192484
17:00+21вюв222569 0.0 10182700
20:00+17в3339100 0.0 101839
9 мая, вс
вс923:00+15всв2238100 0.0 101819
02:00+14ссв3444100 0.0 101860
05:00+13ссв364998 0.0 1018101
08:00+16св484897 0.0 1018330
11:00+21всв683283 0.0 10172404
14:00+22всв672995 0.0 10172751
17:00+21св783499 0.0 10171611
20:00+17св71151100 0.0 1018604
10 мая, пн
пн1023:00+16ссв5105290 0.3 1019275
02:00+12с357875 0.1 101993
05:00+11ссв38768 0.1 1020132
08:00+16всв47565 0.0 1021414
11:00+21всв55375 0.0 10222007
14:00+23всв332912 0.0 10212719
17:00+23св21265 0.0 10212771
20:00+19ююв223912 0.0 102115